| time (UTC) | temp F | wind direction | speed knots | gust knots | rain 1hr in | rain 24hr in | rain mn in | humidity % | barometer mb |
| 20260504150236 | 67 | 243 | 1.7 | 3.5 | 0.00 | 0.00 | 0.00 | 55 | 1017.1 |
| 20260504141205 | 68 | 230 | 5.2 | 15.6 | 0.00 | 0.00 | 0.00 | 56 | 1017.7 |
| 20260504140702 | 68 | 233 | 3.5 | 12.2 | 0.00 | 0.00 | 0.00 | 59 | 1017.5 |
| 20260504140157 | 68 | 244 | 1.7 | 6.1 | 0.00 | 0.00 | 0.00 | 58 | 1017.3 |
| 20260504130626 | 69 | 250 | 2.6 | 12.2 | 0.00 | 0.00 | 0.00 | 59 | 1017.4 |
| 20260504130123 | 71 | 201 | 4.3 | 11.3 | 0.00 | 0.00 | 0.00 | 58 | 1017.4 |
| 20260504110515 | 69 | 196 | 10.4 | 13.9 | 0.00 | 0.00 | 0.00 | 56 | 1017.9 |
| 20260504100436 | 70 | 194 | 4.3 | 13.9 | 0.00 | 0.00 | 0.00 | 53 | 1018.0 |
| 20260504081829 | 67 | 187 | 8.7 | 12.2 | 0.00 | 0.00 | 0.00 | 55 | 1018.0 |
| 20260504081326 | 68 | 197 | 7.0 | 13.0 | 0.00 | 0.00 | 0.00 | 53 | 1018.3 |
| 20260504080821 | 68 | 219 | 11.3 | 16.5 | 0.00 | 0.00 | 0.00 | 56 | 1018.2 |
| 20260504080319 | 68 | 206 | 3.5 | 10.4 | 0.00 | 0.00 | 0.00 | 55 | 1018.1 |
| 20260504070246 | 67 | 190 | 16.5 | 18.2 | 0.00 | 0.00 | 0.00 | 55 | 1017.8 |
| 20260504060207 | 64 | 180 | 6.1 | 7.8 | 0.00 | 0.00 | 0.00 | 64 | 1017.4 |
| 20260504050635 | 64 | 222 | 2.6 | 7.8 | 0.00 | 0.00 | 0.00 | 59 | 1016.9 |
| 20260504050132 | 65 | 250 | 1.7 | 3.5 | 0.00 | 0.00 | 0.00 | 58 | 1016.9 |
| 20260504045629 | 65 | 180 | 1.7 | 6.1 | 0.00 | 0.00 | 0.00 | 58 | 1017.1 |
| 20260504045129 | 66 | 175 | 2.6 | 4.3 | 0.00 | 0.00 | 0.00 | 61 | 1016.9 |
| 20260504044627 | 65 | 157 | 2.6 | 4.3 | 0.00 | 0.00 | 0.00 | 60 | 1017.0 |
| 20260504044124 | 65 | 215 | 6.1 | 7.8 | 0.00 | 0.00 | 0.00 | 62 | 1016.7 |
| 20260504043621 | 63 | 186 | 3.5 | 4.3 | 0.00 | 0.00 | 0.00 | 66 | 1016.7 |
| 20260504043118 | 63 | 200 | 2.6 | 5.2 | 0.00 | 0.00 | 0.00 | 67 | 1016.6 |
| 20260504042615 | 62 | 185 | 1.7 | 4.3 | 0.00 | 0.00 | 0.00 | 68 | 1016.7 |
| 20260504042112 | 62 | 194 | 2.6 | 7.0 | 0.00 | 0.00 | 0.00 | 68 | 1016.6 |
| 20260504041607 | 62 | 190 | 2.6 | 6.1 | 0.00 | 0.00 | 0.00 | 68 | 1016.6 |
| 20260504041104 | 62 | 181 | 3.5 | 5.2 | 0.00 | 0.00 | 0.00 | 68 | 1016.8 |
| 20260504040602 | 61 | 192 | 2.6 | 7.8 | 0.00 | 0.00 | 0.00 | 68 | 1016.7 |
| 20260504040058 | 61 | 193 | 2.6 | 5.2 | 0.00 | 0.00 | 0.00 | 68 | 1016.7 |
| 20260504035555 | 60 | 180 | 2.6 | 4.3 | 0.00 | 0.00 | 0.00 | 69 | 1016.7 |
| 20260504035051 | 60 | 191 | 1.7 | 4.3 | 0.00 | 0.00 | 0.00 | 69 | 1016.8 |
| 20260504034549 | 60 | 190 | 1.7 | 6.1 | 0.00 | 0.00 | 0.00 | 68 | 1016.5 |
| 20260504034046 | 60 | 215 | 4.3 | 5.2 | 0.00 | 0.00 | 0.00 | 69 | 1016.5 |
| 20260504033544 | 59 | 178 | 2.6 | 5.2 | 0.00 | 0.00 | 0.00 | 70 | 1016.4 |
| 20260504033041 | 59 | 201 | 4.3 | 4.3 | 0.00 | 0.00 | 0.00 | 71 | 1016.5 |
| 20260504032538 | 58 | 205 | 2.6 | 3.5 | 0.00 | 0.00 | 0.00 | 72 | 1016.4 |
| 20260504032034 | 58 | 214 | 2.6 | 3.5 | 0.00 | 0.00 | 0.00 | 72 | 1016.5 |
| 20260504031532 | 58 | 196 | 1.7 | 3.5 | 0.00 | 0.00 | 0.00 | 73 | 1016.5 |
| 20260504031028 | 58 | 181 | 1.7 | 4.3 | 0.00 | 0.00 | 0.00 | 73 | 1016.4 |
| 20260504030525 | 58 | 225 | 1.7 | 2.6 | 0.00 | 0.00 | 0.00 | 72 | 1016.2 |
| 20260504030021 | 57 | 226 | 1.7 | 2.6 | 0.00 | 0.00 | 0.00 | 73 | 1016.3 |
| 20260504025518 | 57 | 232 | 1.7 | 2.6 | 0.00 | 0.00 | 0.00 | 73 | 1016.3 |
| 20260504025015 | 57 | 214 | 1.7 | 2.6 | 0.00 | 0.00 | 0.00 | 73 | 1016.2 |
| 20260504024512 | 57 | 199 | 2.6 | 3.5 | 0.00 | 0.00 | 0.00 | 73 | 1016.3 |
| 20260504024009 | 57 | 186 | 1.7 | 3.5 | 0.00 | 0.00 | 0.00 | 73 | 1016.3 |
| 20260504023506 | 58 | 200 | 2.6 | 4.3 | 0.00 | 0.00 | 0.00 | 73 | 1016.4 |
| 20260504023001 | 58 | 202 | 2.6 | 3.5 | 0.00 | 0.00 | 0.00 | 73 | 1016.3 |
| 20260504022457 | 58 | 161 | 1.7 | 2.6 | 0.00 | 0.00 | 0.00 | 73 | 1016.3 |
| 20260504021954 | 58 | 214 | 0.9 | 1.7 | 0.00 | 0.00 | 0.00 | 72 | 1016.3 |
| 20260504021452 | 58 | 227 | 2.6 | 3.5 | 0.00 | 0.00 | 0.00 | 71 | 1016.4 |
| 20260504020949 | 58 | 233 | 1.7 | 2.6 | 0.00 | 0.00 | 0.00 | 71 | 1016.3 |
| 20260504020445 | 58 | 228 | 2.6 | 4.3 | 0.00 | 0.00 | 0.00 | 70 | 1016.3 |
| 20260504015942 | 58 | 209 | 2.6 | 3.5 | 0.00 | 0.00 | 0.00 | 71 | 1016.3 |
| 20260504015438 | 58 | 222 | 3.5 | 4.3 | 0.00 | 0.00 | 0.00 | 71 | 1016.2 |
| 20260504014934 | 58 | 245 | 1.7 | 3.5 | 0.00 | 0.00 | 0.00 | 72 | 1016.3 |
| 20260504014430 | 58 | 223 | 3.5 | 3.5 | 0.00 | 0.00 | 0.00 | 73 | 1016.5 |
| 20260504013927 | 58 | 213 | 2.6 | 3.5 | 0.00 | 0.00 | 0.00 | 72 | 1016.4 |
| 20260504013426 | 59 | 247 | 1.7 | 3.5 | 0.00 | 0.00 | 0.00 | 71 | 1016.3 |
| 20260504012926 | 59 | 244 | 1.7 | 2.6 | 0.00 | 0.00 | 0.00 | 71 | 1016.3 |
| 20260504012425 | 59 | 210 | 1.7 | 3.5 | 0.00 | 0.00 | 0.00 | 71 | 1016.4 |
| 20260504011922 | 59 | 226 | 2.6 | 3.5 | 0.00 | 0.00 | 0.00 | 71 | 1016.5 |
| 20260504011419 | 59 | 222 | 2.6 | 3.5 | 0.00 | 0.00 | 0.00 | 71 | 1016.5 |
| 20260504010914 | 58 | 226 | 1.7 | 3.5 | 0.00 | 0.00 | 0.00 | 72 | 1016.5 |
| 20260504010411 | 58 | 207 | 3.5 | 4.3 | 0.00 | 0.00 | 0.00 | 72 | 1016.4 |
| 20260504005907 | 59 | 218 | 1.7 | 4.3 | 0.00 | 0.00 | 0.00 | 71 | 1016.4 |
| 20260504005403 | 59 | 199 | 3.5 | 4.3 | 0.00 | 0.00 | 0.00 | 71 | 1016.5 |
| 20260504004901 | 59 | 223 | 3.5 | 3.5 | 0.00 | 0.00 | 0.00 | 70 | 1016.4 |
| 20260504004359 | 60 | 220 | 2.6 | 2.6 | 0.00 | 0.00 | 0.00 | 69 | 1016.2 |
| 20260504003855 | 60 | 217 | 1.7 | 3.5 | 0.00 | 0.00 | 0.00 | 68 | 1016.4 |
| 20260504003352 | 61 | 215 | 1.7 | 4.3 | 0.00 | 0.00 | 0.00 | 67 | 1016.2 |
| 20260504002848 | 61 | 215 | 2.6 | 5.2 | 0.00 | 0.00 | 0.00 | 67 | 1016.3 |
| 20260504002345 | 61 | 208 | 3.5 | 7.0 | 0.00 | 0.00 | 0.00 | 67 | 1016.5 |
| 20260504001843 | 61 | 227 | 1.7 | 5.2 | 0.00 | 0.00 | 0.00 | 67 | 1016.3 |
| 20260504001340 | 61 | 205 | 4.3 | 5.2 | 0.00 | 0.00 | 0.00 | 67 | 1016.4 |
| 20260504000837 | 60 | 222 | 3.5 | 5.2 | 0.00 | 0.00 | 0.00 | 67 | 1016.4 |
| 20260504000334 | 60 | 204 | 3.5 | 4.3 | 0.00 | 0.00 | 0.00 | 67 | 1016.5 |
| 20260503235831 | 60 | 219 | 2.6 | 5.2 | 0.00 | 0.00 | 0.00 | 67 | 1016.5 |
| 20260503235329 | 60 | 266 | 1.7 | 2.6 | 0.00 | 0.00 | 0.00 | 67 | 1016.4 |
| 20260503234826 | 60 | 237 | 2.6 | 3.5 | 0.00 | 0.00 | 0.00 | 67 | 1016.5 |
| 20260503234324 | 60 | 219 | 2.6 | 3.5 | 0.00 | 0.00 | 0.00 | 67 | 1016.5 |
| 20260503233822 | 61 | 243 | 1.7 | 3.5 | 0.00 | 0.00 | 0.00 | 66 | 1016.5 |
| 20260503233317 | 60 | 237 | 2.6 | 5.2 | 0.00 | 0.00 | 0.00 | 66 | 1016.5 |
| 20260503232814 | 60 | 245 | 1.7 | 3.5 | 0.00 | 0.00 | 0.00 | 66 | 1016.6 |
| 20260503232311 | 61 | 246 | 1.7 | 2.6 | 0.00 | 0.00 | 0.00 | 66 | 1016.6 |
| 20260503231809 | 61 | 220 | 3.5 | 4.3 | 0.00 | 0.00 | 0.00 | 65 | 1016.8 |
| 20260503231306 | 61 | 209 | 3.5 | 3.5 | 0.00 | 0.00 | 0.00 | 65 | 1016.8 |
| 20260503230802 | 61 | 218 | 2.6 | 4.3 | 0.00 | 0.00 | 0.00 | 64 | 1016.9 |
| 20260503230259 | 61 | 284 | 0.9 | 7.8 | 0.00 | 0.00 | 0.00 | 64 | 1016.8 |
| 20260503225757 | 61 | 257 | 1.7 | 2.6 | 0.00 | 0.00 | 0.00 | 64 | 1016.8 |
| 20260503225252 | 61 | 241 | 2.6 | 3.5 | 0.00 | 0.00 | 0.00 | 64 | 1016.8 |
| 20260503224749 | 61 | 219 | 2.6 | 2.6 | 0.00 | 0.00 | 0.00 | 64 | 1016.6 |
| 20260503224246 | 60 | 249 | 0.9 | 3.5 | 0.00 | 0.00 | 0.00 | 65 | 1016.7 |
| 20260503223744 | 60 | 249 | 0.9 | 1.7 | 0.00 | 0.00 | 0.00 | 65 | 1016.7 |
| 20260503223241 | 61 | 275 | 2.6 | 5.2 | 0.00 | 0.00 | 0.00 | 65 | 1016.8 |
| 20260503222737 | 61 | 248 | 0.9 | 4.3 | 0.00 | 0.00 | 0.00 | 65 | 1016.9 |
| 20260503222236 | 61 | 264 | 1.7 | 4.3 | 0.00 | 0.00 | 0.00 | 65 | 1017.0 |
| 20260503221734 | 61 | 239 | 1.7 | 2.6 | 0.00 | 0.00 | 0.00 | 64 | 1017.1 |
| 20260503221231 | 62 | 285 | 0.9 | 3.5 | 0.00 | 0.00 | 0.00 | 63 | 1016.9 |
| 20260503220727 | 62 | 239 | 1.7 | 5.2 | 0.00 | 0.00 | 0.00 | 63 | 1017.1 |
| 20260503220224 | 62 | 276 | 1.7 | 3.5 | 0.00 | 0.00 | 0.00 | 63 | 1017.2 |
| 20260503215721 | 62 | 229 | 3.5 | 5.2 | 0.00 | 0.00 | 0.00 | 64 | 1017.1 |
| 20260503215218 | 62 | 256 | 0.0 | 5.2 | 0.00 | 0.00 | 0.00 | 66 | 1017.0 |
| 20260503214716 | 62 | 228 | 3.5 | 4.3 | 0.00 | 0.00 | 0.00 | 67 | 1017.1 |
| 20260503214212 | 62 | 255 | 1.7 | 3.5 | 0.00 | 0.00 | 0.00 | 67 | 1016.9 |
| 20260503213711 | 62 | 283 | 2.6 | 6.1 | 0.00 | 0.00 | 0.00 | 67 | 1017.0 |
| 20260503213208 | 62 | 253 | 1.7 | 7.0 | 0.00 | 0.00 | 0.00 | 67 | 1017.1 |
| 20260503212704 | 62 | 234 | 3.5 | 5.2 | 0.00 | 0.00 | 0.00 | 67 | 1017.0 |
| 20260503212202 | 62 | 223 | 1.7 | 3.5 | 0.00 | 0.00 | 0.00 | 67 | 1017.0 |
| 20260503211700 | 63 | 283 | 1.7 | 6.1 | 0.00 | 0.00 | 0.00 | 68 | 1017.2 |
| 20260503211155 | 63 | 302 | 2.6 | 4.3 | 0.00 | 0.00 | 0.00 | 68 | 1017.3 |
| 20260503210651 | 63 | 225 | 1.7 | 7.0 | 0.00 | 0.00 | 0.00 | 68 | 1017.1 |
| 20260503210148 | 63 | 242 | 2.6 | 5.2 | 0.00 | 0.00 | 0.00 | 69 | 1017.2 |
| 20260503205644 | 63 | 245 | 2.6 | 4.3 | 0.00 | 0.00 | 0.00 | 70 | 1017.2 |
| 20260503205140 | 63 | 245 | 2.6 | 2.6 | 0.00 | 0.00 | 0.00 | 71 | 1017.2 |
| 20260503204637 | 63 | 218 | 3.5 | 4.3 | 0.00 | 0.00 | 0.00 | 71 | 1017.1 |
| 20260503204135 | 64 | 280 | 1.7 | 3.5 | 0.00 | 0.00 | 0.00 | 71 | 1017.2 |
| 20260503203631 | 63 | 276 | 1.7 | 6.1 | 0.00 | 0.00 | 0.00 | 72 | 1017.2 |
| 20260503203129 | 63 | 266 | 3.5 | 7.8 | 0.00 | 0.00 | 0.00 | 71 | 1017.0 |
| 20260503202626 | 64 | 265 | 2.6 | 5.2 | 0.00 | 0.00 | 0.00 | 70 | 1017.0 |
| 20260503202124 | 64 | 277 | 0.9 | 3.5 | 0.00 | 0.00 | 0.00 | 69 | 1017.1 |
| 20260503201622 | 64 | 268 | 1.7 | 8.7 | 0.00 | 0.00 | 0.00 | 68 | 1017.3 |
| 20260503201119 | 64 | 327 | 0.0 | 7.8 | 0.00 | 0.00 | 0.00 | 68 | 1017.0 |
| 20260503200615 | 64 | 204 | 1.7 | 5.2 | 0.00 | 0.00 | 0.00 | 67 | 1017.0 |
| 20260503200112 | 64 | 253 | 1.7 | 3.5 | 0.00 | 0.00 | 0.00 | 66 | 1017.2 |
| 20260503195609 | 64 | 289 | 0.9 | 2.6 | 0.00 | 0.00 | 0.00 | 66 | 1017.1 |
| 20260503195106 | 63 | 248 | 1.7 | 2.6 | 0.00 | 0.00 | 0.00 | 66 | 1017.3 |
| 20260503194603 | 63 | 275 | 1.7 | 2.6 | 0.00 | 0.00 | 0.00 | 66 | 1017.3 |
| 20260503194058 | 63 | 225 | 3.5 | 3.5 | 0.00 | 0.00 | 0.00 | 66 | 1017.2 |
| 20260503193555 | 63 | 249 | 1.7 | 2.6 | 0.00 | 0.00 | 0.00 | 66 | 1017.2 |
| 20260503193050 | 63 | 251 | 1.7 | 3.5 | 0.00 | 0.00 | 0.00 | 66 | 1017.1 |
| 20260503192546 | 63 | 236 | 2.6 | 3.5 | 0.00 | 0.00 | 0.00 | 67 | 1017.0 |
| 20260503192042 | 63 | 244 | 1.7 | 3.5 | 0.00 | 0.00 | 0.00 | 68 | 1016.7 |
| 20260503191539 | 63 | 253 | 2.6 | 3.5 | 0.00 | 0.00 | 0.00 | 69 | 1016.6 |
| 20260503191036 | 64 | 245 | 0.9 | 5.2 | 0.00 | 0.00 | 0.00 | 70 | 1016.7 |
| 20260503190533 | 64 | 235 | 2.6 | 3.5 | 0.00 | 0.00 | 0.00 | 70 | 1016.9 |
| 20260503190030 | 64 | 255 | 0.9 | 3.5 | 0.00 | 0.00 | 0.00 | 69 | 1017.0 |
| 20260503185527 | 64 | 242 | 2.6 | 4.3 | 0.00 | 0.00 | 0.00 | 68 | 1016.8 |
| 20260503185026 | 64 | 251 | 1.7 | 2.6 | 0.00 | 0.00 | 0.00 | 67 | 1016.8 |
| 20260503184523 | 64 | 301 | 1.7 | 2.6 | 0.00 | 0.00 | 0.00 | 67 | 1016.8 |
| 20260503184019 | 64 | 275 | 1.7 | 1.7 | 0.00 | 0.00 | 0.00 | 67 | 1016.8 |
| 20260503183516 | 65 | 228 | 1.7 | 2.6 | 0.00 | 0.00 | 0.00 | 66 | 1016.8 |
| 20260503183013 | 65 | 286 | 1.7 | 4.3 | 0.00 | 0.00 | 0.00 | 67 | 1016.7 |
| 20260503182512 | 65 | 298 | 0.0 | 8.7 | 0.00 | 0.00 | 0.00 | 67 | 1016.8 |
| 20260503182009 | 65 | 285 | 1.7 | 4.3 | 0.00 | 0.00 | 0.00 | 68 | 1016.7 |
| 20260503181501 | 65 | 269 | 0.0 | 2.6 | 0.00 | 0.00 | 0.00 | 68 | 1016.5 |
| 20260503180956 | 65 | 249 | 1.7 | 3.5 | 0.00 | 0.00 | 0.00 | 68 | 1016.2 |
| 20260503180455 | 64 | 260 | 1.7 | 4.3 | 0.00 | 0.00 | 0.00 | 68 | 1016.2 |
| 20260503175951 | 64 | 283 | 0.0 | 1.7 | 0.00 | 0.00 | 0.00 | 69 | 1016.1 |
| 20260503175449 | 64 | 265 | 1.7 | 3.5 | 0.00 | 0.00 | 0.00 | 69 | 1016.2 |
| 20260503174945 | 65 | 272 | 1.7 | 2.6 | 0.00 | 0.00 | 0.00 | 69 | 1016.1 |
| 20260503174443 | 65 | 257 | 2.6 | 4.3 | 0.00 | 0.00 | 0.00 | 69 | 1016.1 |
| 20260503173943 | 65 | 266 | 0.9 | 3.5 | 0.00 | 0.00 | 0.00 | 70 | 1016.0 |
| 20260503173439 | 65 | 260 | 1.7 | 4.3 | 0.00 | 0.00 | 0.00 | 70 | 1015.7 |
| 20260503172936 | 65 | 260 | 4.3 | 4.3 | 0.00 | 0.00 | 0.00 | 71 | 1015.9 |
| 20260503172434 | 65 | 269 | 0.0 | 3.5 | 0.00 | 0.00 | 0.00 | 71 | 1015.5 |
| 20260503171930 | 64 | 269 | 0.0 | 5.2 | 0.00 | 0.00 | 0.00 | 72 | 1015.4 |
| 20260503171427 | 64 | 278 | 1.7 | 4.3 | 0.00 | 0.00 | 0.00 | 73 | 1015.4 |
| 20260503170925 | 64 | 333 | 0.0 | 3.5 | 0.00 | 0.00 | 0.00 | 75 | 1015.3 |
| 20260503170420 | 64 | 262 | 0.9 | 3.5 | 0.00 | 0.00 | 0.00 | 78 | 1015.2 |
| 20260503150813 | 66 | 343 | 3.5 | 5.2 | 0.00 | 0.00 | 0.00 | 78 | 1014.0 |